Location: Bailleul
(50.3375°N, 2.8513°E)
Time: 02:59:56
(UTC+00:00)

Cosmos 1980 - Pass Details

Date: 31 October 2021
Orbit: 839 x 847 km, 71.0° (Epoch: 01 December)

Event Time Altitude Azimuth Distance (km) Brightness Sun altitude
Rises 20:03:25 0° 224° (SW) 3,382 7.1 -34.8°
Reaches altitude 10° 20:05:55 10° 229° (SW) 2,452 6.3 -35.1°
Enters shadow 20:08:13 24° 239° (WSW) 1,656 5.4 -35.5°
